Regional Weather Roundup
Issued by NWS Cleveland, OH

Home | Current Version | Previous Version | Text Only | Print | Product List | Glossary Off
Versions: 1 2 3 4 5 6 7 8 9 10 11 12 13 14 15 16 17 18 19 20 21 22 23 24 25 26 27 28 29 30 31 32 33 34 35 36 37 38 39 40 41 42 43 44 45 46 47 48 49 50

000
ASUS41 KCLE 211100
RWRCLE
OHIO REGIONAL WEATHER ROUNDUP
NATIONAL WEATHER SERVICE WILMINGTON, OH
700 AM EDT TUE OCT 21 2014

NOTE: "FAIR" INDICATES FEW OR NO CLOUDS BELOW 12,000 FEET WITH NO
SIGNIFICANT WEATHER AND/OR OBSTRUCTIONS TO VISIBILITY.

OHZ001>008-015>018-024>027-034-035-043-044-211200-
   NORTHWEST OHIO

CITY           SKY/WX    TMP DP  RH WIND       PRES   REMARKS
DEFIANCE       CLOUDY    48  43  82 NW9       29.97R
FINDLAY        LGT RAIN  48  45  89 NW9       29.93R
TOLEDO EXPRESS CLOUDY    48  44  86 NW8       29.94R
TOLEDO METCALF CLOUDY    49  43  80 NW10      29.94R
LIMA           CLOUDY    48  43  82 NW10      29.95R
$$

OHZ009>014-019>023-028>033-038-089-211200-
   NORTHEAST OHIO

CITY           SKY/WX    TMP DP  RH WIND       PRES   REMARKS
CLE-HOPKINS    CLOUDY    51  47  86 N9        29.90R
CLE-LAKEFRONT  RAIN      53  47  79 N15       29.86R
CUY CO. ARPT   DRIZZLE   52  50  93 N12       29.86
LORAIN-ELYRIA  LGT RAIN  50  47  89 N9        29.89R
ASHTABULA      CLOUDY    51  48  89 NW5       29.85R
AKRON-CANTON   RAIN      51  47  86 NW6       29.86S FOG
WOOSTER        NOT AVBL
MANSFIELD      CLOUDY    48  47  96 NW12      29.89R
YOUNGSTOWN     RAIN      51  49  92 NW7       29.83R FOG
$$

OHZ042-051>053-060>062-070>072-077>081-211200-
  SOUTHWEST OHIO

CITY           SKY/WX    TMP DP  RH WIND       PRES   REMARKS
CINC-COVINGTON PTCLDY    48  44  86 NW8       29.97R
CINC-LUNKEN    PTCLDY    50  45  83 NW9       29.98R
HAMILTON       CLOUDY    50  47  89 NW8       29.98R
DAYTON         NOT AVBL
WRIGHT-PAT AFB NOT AVBL
DAYTON GENERAL CLOUDY    50  45  83 NW12      29.95R
WILMINGTON     CLOUDY    49  45  86 NW10      29.94R
$$

OHZ036-037-039>041-045>050-054>059-063>069-073>076-082>088-211200-
  CENTRAL AND SOUTHEAST OHIO

CITY           SKY/WX    TMP DP  RH WIND       PRES   REMARKS
COLUMBUS       CLOUDY    50  48  93 NW7       29.90R
OSU AIRPORT    CLOUDY    50  47  89 W7        29.91R
BOLTON FIELD   NOT AVBL
RICKENBACK AFB NOT AVBL
NEWARK         CLOUDY    51  48  89 W5        29.89R FOG
MARION         CLOUDY    48  45  89 N9        29.92R
LANCASTER      CLOUDY    51  48  89 NW6       29.90R FOG
ZANESVILLE     CLOUDY    48  46  93 SW5       29.88S FOG
NEW PHILLY     CLOUDY    51  49  92 CALM      29.87R FOG
$$



USA.gov is the U.S. government's official web portal to all federal, state and local government web resources and services.